Location: Pasadena, ca
(34.1243°N, 118.1037°W)
Time: 12:59:57
(UTC-07:00)

Vanguard 1 - Visible Passes

Search period start: 20 October 2017 00:00
Search period end: 30 October 2017 00:00
Orbit: 650 x 3834 km, 34.3° (Epoch: 20 October)

Date Brightness Start Highest point End Pass type
(mag) Time Alt. Az. Time Alt. Az. Time Alt. Az.
20 Oct 13.6 00:43:05 24° E 00:43:05 24° E 00:49:47 10° ENE visible
20 Oct 12.4 02:55:48 85° E 02:55:48 85° E 03:18:48 10° E visible
20 Oct 12.9 05:08:31 30° W 05:22:44 82° SSW 05:45:50 10° ESE visible
21 Oct 13.4 01:02:54 30° E 01:02:54 30° E 01:11:48 10° ENE visible
21 Oct 12.3 03:15:38 84° W 03:16:43 89° N 03:40:47 10° E visible
21 Oct 12.9 05:28:20 24° W 05:44:29 76° SSW 06:07:11 10° ESE visible
22 Oct 13.2 01:22:45 37° E 01:22:45 37° E 01:33:49 10° E visible
22 Oct 12.3 03:35:28 73° W 03:38:35 90° S 04:02:42 10° E visible
22 Oct 13.0 05:48:11 18° WNW 06:06:06 69° SSW 06:28:16 10° SE visible
23 Oct 13.0 01:42:38 44° E 01:42:38 44° E 01:55:52 10° E visible
23 Oct 12.4 03:55:21 63° W 04:00:26 87° SSW 04:24:32 10° ESE visible
23 Oct 13.1 06:08:04 13° WNW 06:27:32 60° SSW 06:49:05 10° SE visible
24 Oct 12.8 02:02:33 52° E 02:02:33 52° E 02:17:57 10° E visible
24 Oct 12.4 04:15:16 54° W 04:22:13 82° SSW 04:46:11 10° ESE visible
24 Oct 13.2 06:28:28 10° WNW 06:48:50 51° SW 07:09:34 10° SSE visible
25 Oct 14.0 00:09:46 12° ENE 00:09:46 12° ENE 00:10:41 10° ENE visible
25 Oct 12.6 02:22:30 60° E 02:22:30 60° E 02:40:02 10° E visible
25 Oct 12.5 04:35:14 45° W 04:43:55 75° SSW 05:07:37 10° ESE visible
26 Oct 13.8 00:29:46 16° E 00:29:46 16° E 00:32:41 10° E visible
26 Oct 12.5 02:42:30 69° E 02:42:30 69° E 03:02:04 10° E visible
26 Oct 12.7 04:55:14 38° W 05:05:31 67° SSW 05:28:47 10° SE visible
27 Oct 13.7 00:49:48 21° E 00:49:48 21° E 00:54:44 10° E visible
27 Oct 12.4 03:02:32 78° ESE 03:02:32 78° ESE 03:24:00 10° ESE visible
27 Oct 12.8 05:15:16 31° W 05:27:00 59° SSW 05:49:39 10° SE visible
28 Oct 13.5 01:09:52 25° E 01:09:52 25° E 01:16:49 10° E visible
28 Oct 12.3 03:22:36 80° S 03:22:36 80° S 03:45:44 10° ESE visible
28 Oct 13.0 05:35:20 24° W 05:48:23 50° SW 06:10:10 10° SSE visible
29 Oct 13.3 01:29:58 31° E 01:29:58 31° E 01:38:56 10° E visible
29 Oct 12.3 03:42:42 72° SW 03:43:53 73° SSW 04:07:15 10° ESE visible
29 Oct 13.1 05:55:27 18° W 06:09:40 41° SW 06:30:15 10° SSE visible
